{"data":{"norad_id":57816,"epoch":"2026-09-20T22:07:18.931296Z","epoch_age_seconds":98150,"freshness":"FRESH","line1":"1 57816U 23138J   26263.92174689 -.00000095  00000+0  60834-5 0  9999","line2":"2 57816  43.0026 211.8676 0001451 273.9097  86.1589 15.27575855168410","mean_motion":15.27575855,"eccentricity":0.0001451,"inclination_deg":43.0026,"raan_deg":211.8676,"arg_perigee_deg":273.9097,"mean_anomaly_deg":86.1589,"bstar":6.0834e-6,"rev_number":16841,"period_min":94.267004501718,"perigee_km":482.06594778541,"apogee_km":484.05706759234,"semimajor_km":6861.1985076889,"source":"CELESTRAK","updated_at":"2026-09-21T09:00:33.708165Z"}}